Regional Weather Roundup
Issued by NWS

Home | Current Version | Previous Version | Graphics & Text | Print | Product List | Glossary On
Versions: 1 2 3 4 5 6 7 8 9 10 11 12 13 14 15 16 17 18 19 20 21 22 23 24 25 26 27 28 29 30 31 32 33 34 35 36 37 38 39 40 41 42 43 44 45 46 47 48 49 50
000
ASUS43 KMKX 241910
RWRWI

WISCONSIN REGIONAL WEATHER ROUNDUP
NATIONAL WEATHER SERVICE MILWAUKEE/SULLIVAN WI
200 PM CDT THU JUL 24 2014

NOTE: "FAIR" INDICATES FEW OR NO CLOUDS BELOW 12,000 FEET WITH NO
SIGNIFICANT WEATHER AND/OR OBSTRUCTIONS TO VISIBILITY.

WIZ001-002-006>008-014>016-023>028-242000-
NORTHWEST WISCONSIN

CITY           SKY/WX    TMP DP  RH WIND       PRES   REMARKS
SUPERIOR ARPT  MOSUNNY   74  61  63 E6        30.04F
ASHLAND        PTSUNNY   77  56  48 VRB3      30.07F
HAYWARD        PTSUNNY   75  50  41 VRB5      30.09F
SIREN          MOSUNNY   78  51  39 S6        30.07F
RICE LAKE      MOSUNNY   77  50  39 S9        30.10F
LADYSMITH      MOSUNNY   76  51  42 SW6       30.12F
EAU CLAIRE     FAIR      79  50  36 S8        30.07F
MENOMONIE      CLOUDY    78  54  43 S8        30.07F
NEW RICHMOND   MOSUNNY   77  53  42 S7        30.06F
OSCEOLA        MOSUNNY   79  55  43 S9        30.08F HX  80
$$

WIZ003>005-009-010-017-018-242000-
NORTH CENTRAL WISCONSIN

CITY           SKY/WX    TMP DP  RH WIND       PRES   REMARKS
WOODRUFF       MOSUNNY   77  52  42 CALM      30.10F
RHINELANDER    PTSUNNY   73  48  41 VRB3      30.12F
EAGLE RIVER    MOSUNNY   71  45  38 SW7       30.10F
LAND O LAKES   MOSUNNY   73  47  39 CALM      30.11F
PHILLIPS       PTSUNNY   73  50  44 CALM      30.09F
TOMAHAWK       PTSUNNY   73  51  45 CALM      30.11F
MEDFORD        PTSUNNY   73  51  45 SE3       30.11F
MERRILL        MOSUNNY   74  52  45 W3        30.11F
$$

WIZ029-030-035-036-043>047-242000-
CENTRAL WISCONSIN

CITY           SKY/WX    TMP DP  RH WIND       PRES   REMARKS
WAUSAU         MOSUNNY   75  49  39 CALM      30.09F
MOSINEE        MOSUNNY   75  48  38 S9        30.15S
MARSHFIELD     SUNNY     75  51  43 W3        30.11F
STEVENS POINT  MOSUNNY   74  47  37 W6        30.11F
WAUPACA        PTSUNNY   77  49  37 SW5       30.12F
WAUTOMA        PTSUNNY   78  50  37 S8        30.12F
WISC RAPIDS    MOSUNNY   78  49  35 W10       30.11F
CAMP DOUGLAS   PTSUNNY   75  54  46 S6        30.11F
$$

WIZ011>013-019>022-031-037>040-048>050-242000-
NORTHEAST WISCONSIN

CITY           SKY/WX    TMP DP  RH WIND       PRES   REMARKS
ANTIGO         MOSUNNY   72  51  48 W7        30.12F
STURGEON BAY   SUNNY     72  46  40 W3        30.13F
GREEN BAY      MOSUNNY   75  50  41 VRB5      30.12F
MANITOWOC      SUNNY     67  45  45 S13       30.14F
APPLETON       PTSUNNY   70  48  46 VRB6      30.13F
CLINTONVILLE   MOSUNNY   73  46  38 SW5       30.11F
OSHKOSH        PTSUNNY   72  52  49 E8        30.12F
$$

WIZ032>034-041-042-053>061-242000-
SOUTHWEST WISCONSIN

CITY           SKY/WX    TMP DP  RH WIND       PRES   REMARKS
LA CROSSE      SUNNY     81  53  37 SW9       30.08F HX  80
SPARTA         SUNNY     78  49  35 S6        30.11F
VIROQUA        MOCLDY    76  54  46 S5        30.12F
BOSCOBEL       PTSUNNY   79  53  40 VRB3      30.11F
PRAIRIE DU CHI PTSUNNY   77  50  38 SE3       30.09F
PLATTEVILLE    FAIR      76  55  47 S6        30.14F
$$

WIZ056-057-062-063-064-067-068-242000-
SOUTH CENTRAL WISCONSIN

CITY           SKY/WX    TMP DP  RH WIND       PRES   REMARKS
BARABOO/DELLS  PTSUNNY   77  50  38 SW6       30.12F
LONE ROCK      MOSUNNY   82  54  37 W6        30.12F HX  81
WATERTOWN      PTSUNNY   72  52  48 CALM      30.13F
MADISON        PTSUNNY   75  51  43 CALM      30.13F
MIDDLETON      MOCLDY    78  48  35 SE3       30.13F
MONROE         CLOUDY    73  52  46 SW3       30.13F
JANESVILLE     MOSUNNY   75  48  38 E6        30.13F
$$

WIZ051-052-058>065-066-070>072-242000-
SOUTHEAST WISCONSIN

CITY           SKY/WX    TMP DP  RH WIND       PRES   REMARKS
MILWAUKEE      MOSUNNY   69  48  47 E8        30.16F
WAUKESHA       MOSUNNY   72  46  40 SE5       30.16F
MILWAUKEE/TIMM NOT AVBL
RACINE         SUNNY     68  48  48 E7        30.17F
BURLINGTON     MOSUNNY   70  48  45 SE3       30.14F
KENOSHA        SUNNY     71  47  42 NE7       30.16F
FOND DU LAC    PTSUNNY   75  51  43 CALM      30.13F
SHEBOYGAN      SUNNY     71  48  43 MISG      30.14F
WEST BEND      PTSUNNY   72  46  40 E6        30.14F
JUNEAU         MOSUNNY   71  44  37 S3        30.14F
$$

LSZ147-162-242000-
LAKE SUPERIOR

STATION/POSITION TIME  TEMP    WIND        PRES    WAVE
                       AIR SEA DIR/SP/G            HT/PER
                 (UTC) (F)     (DEG/KT/KT) (MB)    (FT/S)
$$

LMZ867-665-643>646-242000-
LAKE MICHIGAN

STATION/POSITION TIME  TEMP    WIND        PRES    WAVE
                       AIR SEA DIR/SP/G            HT/PER
                 (UTC) (F)     (DEG/KT/KT) (MB)    (FT/S)
$$

TC  - TEMPERATURE IN CELSIUS
VSB - VISIBILITY IN STATUTE MILES
WCI - WIND CHILL INDEX
HX  - HEAT INDEX




USA.gov is the U.S. government's official web portal to all federal, state and local government web resources and services.